KAITUO 1B
1 40912U 15049P   18069.96596852  .00000866  00000-0  45184-4 0  9995
2 40912  97.4519  78.6935 0015421   0.4284  29.7683 15.18498198136764
TIANWANG 1C (TW-1C)
1 40926U 15051B   18070.41240836  .00006252  00000-0  12392-3 0  9992
2 40926  97.1966 113.2547 0008381 277.3400 143.3302 15.47369422138187
TIANWANG 1B (TW-1B)
1 40927U 15051C   18070.56806988  .00006017  00000-0  12428-3 0  9994
2 40927  97.2044 113.2948 0008404 291.4944 224.9943 15.46180769138122
TIANWANG 1A (TW-1A)
1 40928U 15051D   18070.51902457  .00002483  00000-0  68261-4 0  9998
2 40928  97.1968 106.4116 0011022 322.7525 173.8301 15.38100079137767
LAPAN A2
1 40931U 15052B   18069.64558632  .00000659  00000-0  26477-5 0  9994
2 40931   6.0002 132.8225 0013790  53.0109 307.1136 14.76567309132418
LQSAT
1 40958U 15057A   18070.41639940  .00000027  00000-0  11911-4 0  9992
2 40958  97.9486 145.6696 0016840 292.8814  67.0616 14.73019703130455
CHUBUSAT 2
1 41338U 16012B   18069.75864930  .00000381  00000-0  23066-4 0  9998
2 41338  31.0025 218.9878 0013807 179.2967 180.7690 14.99931978113045
CHUBUSAT 3
1 41339U 16012C   18070.45019223  .00000330  00000-0  19003-4 0  9995
2 41339  31.0100 213.3347 0013562 193.0557 166.9738 15.00123262113138
OUFTI-1
1 41458U 16025C   18070.40534234  .00001005  00000-0  56185-4 0  9992
2 41458  98.1485 127.9930 0172783 115.3262 246.5964 15.04327154102739
E-STAR-2
1 41459U 16025D   18070.39554316  .00000733  00000-0  42436-4 0  9995
2 41459  98.1470 127.8598 0173485 115.9121 246.0093 15.04078933102728
AAUSAT 4
1 41460U 16025E   18070.39684162  .00001429  00000-0  77742-4 0  9991
2 41460  98.1417 128.2169 0165048 112.6484 249.2289 15.05387088102774
NUSAT 1
1 41557U 16033B   18070.21091880  .00001316  00000-0  50700-4 0  9997
2 41557  97.4406 154.6011 0015004 139.3864 220.8497 15.28058515 99196
BEESAT 4
1 41619U 16040W   18069.84418407  .00001322  00000-0  61229-4 0  9994
2 41619  97.4271 134.3108 0010972 207.7654 152.2998 15.21806113 83132
PRATHAM
1 41783U 16059A   18070.12386340  .00000031  00000-0  15479-4 0  9991
2 41783  98.1301 133.2089 0034465  45.3511 315.0491 14.62904855 77623
ALSAT 1N
1 41789U 16059G   18070.36856371  .00000049  00000-0  18393-4 0  9996
2 41789  98.1300 134.4750 0029282  37.9582 322.3674 14.64132274 77705
NAYIF 1
1 42017U 17008BX  18070.41403498  .00001537  00000-0  66218-4 0  9992
2 42017  97.4597 136.0166 0006712  18.5751 341.5730 15.24105651 59178
LILACSAT-1
1 42725U 98067ME  18070.54487598  .00023397  00000-0  24048-3 0  9991
2 42725  51.6369 134.4310 0003608 234.1962 125.8698 15.64772230 45209
MAX VALIER SAT
1 42778U 17036P   18069.77419822  .00000876  00000-0  42459-4 0  9998
2 42778  97.4160 131.0702 0014088  59.4826 300.7798 15.21078022 39549
